Location: *
(46.3500°N, 10.9000°E)
Time: 22:47:21
(UTC+00:00)

Explorer 7 - Pass Details

Date: 19 April 2021
Orbit: 484 x 677 km, 50.3° (Epoch: 05 May)

Event Time Altitude Azimuth Distance (km) Brightness Sun altitude
Rises 18:50:05 0° 212° (SSW) 2,609 10.4 -7.3°
Reaches altitude 10° 18:52:25 10° 200° (SSW) 1,754 9.3 -7.7°
Maximum altitude 18:55:53 29° 140° (SE) 1,019 7.7 -8.2°
Drops below altitude 10° 18:59:32 10° 80° (E) 1,861 9.0 -8.8°
Enters shadow 19:01:15 - 72° (ENE) 2,490 9.7 -9.1°
Sets 19:02:04 0° 69° (ENE) 2,801 - -9.2°
